Weather History for Wenatchee, WA

Change the Weather History Date:

Friday, January 20, 2012

  Actual Average Record
Temperature  
Mean Temperature 14 °F 30 °F  
Max Temperature 19 °F 35 °F 52 °F (1967)
Min Temperature 8 °F 25 °F -2 °F (1962)
Degree Days  
Heating Degree Days 51 35  
Month to date heating degree days 773 729  
Since 1 July heating degree days 3190 3249  
Cooling Degree Days 0 0  
Month to date cooling degree days 0 0  
Year to date cooling degree days 0 0  
Moisture  
Dew Point 12 °F    
Average Humidity 83    
Maximum Humidity 92    
Minimum Humidity 73    
Precipitation  
Precipitation 0.08 in 0.03 in 0.34 in (1999)
Month to date precipitation 0.59 0.72  
Year to date precipitation 0.59 0.72  
Sea Level Pressure  
Sea Level Pressure 29.68 in    
Wind  
Wind Speed 2 mph (WNW)    
Max Wind Speed 9 mph    
Max Gust Speed 12 mph    
Visibility 5 miles    
Events Snow    
T = Trace of Precipitation, MM = Missing Value Source: NWS Daily Summary

Daily Weather History Graph

Daily Weather History Graph

Search for Another Location

Airport:

Trip Planner

Search our weather history database for the weather conditions in past years. The results will help you decide how hot, cold, wet, or windy it might be!

Date:

Astronomy

Jan. 20, 2012 Rise Set
Actual Time 7:40 AM PST 4:43 PM PST
Civil Twilight 7:06 AM PST 5:18 PM PST
Nautical Twilight 6:28 AM PST 5:55 PM PST
Astronomical Twilight 5:51 AM PST 6:32 PM PST
Moon 5:27 AM PST 2:16 PM PST
Length of Visible Light 10h 11m
Length of Day
9h 03m
Waning Crescent, 7% of the Moon is Illuminated
Jan 20
Waning Crescent
Jan 22
New
Jan 30
First Quarter
Feb 7
Full
Feb 14
Last Quarter

Hourly Weather History & Observations

Time (PST) Temp. Windchill Dew Point Humidity Pressure Visibility Wind Dir Wind Speed Gust Speed Precip Events Conditions
12:55 AM 12.9 °F - 8.1 °F 81% 29.92 in 10.0 mi Calm Calm - N/A   Mostly Cloudy
1:55 AM 12.0 °F - 8.1 °F 84% 29.94 in 10.0 mi Calm Calm - N/A   Mostly Cloudy
2:55 AM 12.9 °F - 8.1 °F 81% 29.95 in 10.0 mi Calm Calm - N/A   Overcast
3:55 AM 14.0 °F - 8.1 °F 77% 29.96 in 10.0 mi Calm Calm - N/A   Overcast
4:55 AM 12.9 °F 6.9 °F 8.1 °F 81% 29.96 in 10.0 mi North 3.5 mph - N/A   Partly Cloudy
5:55 AM 12.0 °F - 8.1 °F 84% 29.96 in 10.0 mi Calm Calm - N/A   Mostly Cloudy
6:55 AM 10.0 °F - 6.1 °F 84% 29.97 in 10.0 mi Calm Calm - N/A   Clear
7:55 AM 10.9 °F - 7.0 °F 84% 29.96 in 10.0 mi Calm Calm - N/A   Mostly Cloudy
8:31 AM 12.2 °F - 8.6 °F 85% 29.89 in 10.0 mi Calm Calm - N/A   Overcast
8:55 AM 14.0 °F 8.2 °F 8.1 °F 77% 29.96 in 10.0 mi North 3.5 mph - N/A   Overcast
9:55 AM 15.1 °F - 10.0 °F 80% 29.94 in 10.0 mi Calm Calm - N/A   Overcast
10:55 AM 16.0 °F - 9.0 °F 74% 29.94 in 10.0 mi Calm Calm - N/A   Overcast
11:55 AM 16.0 °F 10.4 °F 9.0 °F 74% 29.89 in 10.0 mi WNW 3.5 mph - N/A   Overcast
12:37 PM 15.8 °F 10.2 °F 10.4 °F 79% 29.78 in 1.8 mi NW 3.5 mph - 0.00 in Snow Light Snow
1:14 PM 15.8 °F 10.2 °F 12.2 °F 86% 29.75 in 2.0 mi NW 3.5 mph - 0.00 in Snow Light Snow
1:28 PM 17.6 °F 10.7 °F 12.2 °F 79% 29.74 in 5.0 mi West 4.6 mph - 0.00 in Snow Light Snow
1:55 PM 17.1 °F 10.0 °F 12.0 °F 81% 29.79 in 10.0 mi WNW 4.6 mph - 0.00 in   Overcast
2:33 PM 17.6 °F 12.3 °F 12.2 °F 79% 29.70 in 5.0 mi West 3.5 mph - 0.00 in Snow Light Snow
2:38 PM 17.6 °F 12.3 °F 12.2 °F 79% 29.69 in 1.8 mi West 3.5 mph - 0.00 in Snow Light Snow
2:45 PM 17.6 °F 12.3 °F 12.2 °F 79% 29.69 in 1.8 mi West 3.5 mph - 0.00 in Snow Light Snow
2:55 PM 17.1 °F 11.7 °F 12.9 °F 84% 29.75 in 1.5 mi NW 3.5 mph - 0.00 in Snow Light Snow
3:48 PM 17.6 °F 12.3 °F 14.0 °F 86% 29.66 in 3.0 mi West 3.5 mph - 0.01 in Snow Light Snow
3:55 PM 17.1 °F 10.0 °F 14.0 °F 88% 29.71 in 1.5 mi West 4.6 mph - 0.01 in Snow Light Snow
4:50 PM 17.6 °F 10.7 °F 14.0 °F 86% 29.61 in 1.2 mi WNW 4.6 mph - 0.01 in Snow Light Snow
4:55 PM 17.1 °F 10.0 °F 14.0 °F 88% 29.67 in 1.5 mi WNW 4.6 mph - 0.02 in Snow Light Snow
5:55 PM 17.1 °F 11.7 °F 15.1 °F 92% 29.61 in 1.2 mi NW 3.5 mph - 0.02 in Snow Light Snow
6:21 PM 17.6 °F 10.7 °F 15.8 °F 93% 29.53 in 2.0 mi West 4.6 mph - 0.01 in Snow Light Snow
6:55 PM 17.1 °F 11.7 °F 15.1 °F 92% 29.56 in 2.5 mi West 3.5 mph - 0.02 in Snow Light Snow
7:07 PM 17.6 °F 12.3 °F 15.8 °F 93% 29.48 in 1.8 mi NNW 3.5 mph - 0.00 in Snow Light Snow
7:42 PM 17.6 °F 12.3 °F 15.8 °F 93% 29.46 in 2.0 mi WNW 3.5 mph - 0.00 in Snow Light Snow
7:55 PM 18.0 °F - 15.1 °F 88% 29.50 in 3.0 mi Calm Calm - 0.00 in   Overcast
8:05 PM 17.6 °F 12.3 °F 15.8 °F 93% 29.43 in 2.5 mi North 3.5 mph - N/A   Overcast
8:12 PM 17.6 °F 10.7 °F 15.8 °F 93% 29.42 in 3.0 mi NW 4.6 mph - 0.00 in Snow Light Snow
8:16 PM 17.6 °F 10.7 °F 15.8 °F 93% 29.42 in 2.5 mi WNW 4.6 mph - 0.00 in Snow Light Snow
8:55 PM 18.0 °F 8.7 °F 15.1 °F 88% 29.46 in 2.5 mi WNW 6.9 mph - 0.00 in Snow Light Snow
9:03 PM 17.6 °F 7.3 °F 15.8 °F 93% 29.39 in 1.8 mi WNW 8.1 mph - 0.00 in Snow Light Snow
9:14 PM 17.6 °F 8.2 °F 15.8 °F 93% 29.39 in 2.5 mi WNW 6.9 mph - 0.00 in Snow Light Snow
9:23 PM 17.6 °F 8.2 °F 15.8 °F 93% 29.39 in 4.0 mi WNW 6.9 mph - 0.00 in Snow Light Snow
9:55 PM 18.0 °F 9.8 °F 15.1 °F 88% 29.42 in 7.0 mi West 5.8 mph - 0.01 in   Overcast
10:05 PM 17.6 °F 8.2 °F 15.8 °F 93% 29.36 in 7.0 mi WNW 6.9 mph - N/A   Overcast
10:55 PM 18.0 °F 9.8 °F 15.1 °F 88% 29.40 in 10.0 mi WNW 5.8 mph - N/A   Overcast